Wind_Speed
36 37 37 38 39 39 39 39 40 41 41 42 42 42 43 44 44 44 45 45 45 45 46 46 45 46 46 46 47 46 46 46 47 47 47 47 47 48 48 47 46 45 45
35 36 37 37 38 38 38 39 40 41 41 41 42 43 43 44 45 45 46 47 46 46 46 47 47 46 47 47 47 47 47 47 48 48 48 48 48 49 49 49 48 47 47
35 36 37 37 38 38 38 38 39 41 41 41 42 43 43 44 45 45 46 46 46 46 46 46 46 46 46 46 46 47 47 48 48 49 49 49 50 50 50 50 50 49 49
35 35 36 37 38 38 39 39 39 40 41 41 42 43 44 44 45 45 46 46 47 47 46 47 46 46 46 46 47 47 47 48 48 49 49 50 50 51 50 50 51 51 51
35 35 36 37 38 39 39 40 40 40 40 41 42 43 43 44 45 45 45 46 47 47 47 48 47 47 47 47 47 47 48 48 48 49 49 49 50 51 50 50 51 51 52
35 35 36 36 37 38 38 39 40 41 41 42 43 44 44 44 45 46 47 47 47 48 48 49 49 49 48 48 48 48 48 48 48 49 49 50 50 50 50 50 51 51 52
35 35 35 36 37 37 38 39 39 41 42 42 43 44 44 44 45 46 47 48 48 48 49 50 50 50 50 50 51 50 49 49 50 50 51 51 51 50 50 50 50 51 51
36 35 35 36 37 37 38 39 40 41 41 42 42 43 43 44 45 46 46 47 49 50 51 51 51 51 51 51 52 51 51 51 52 52 51 51 51 51 51 50 50 51 52
36 37 36 36 37 38 39 41 42 42 42 42 42 43 44 45 45 45 45 46 48 50 51 51 51 51 51 51 52 52 52 52 53 53 53 52 52 52 52 51 52 53 53
37 37 38 38 38 39 40 41 42 42 43 44 44 44 44 45 45 46 45 46 47 48 49 50 51 51 51 51 52 53 53 53 53 54 54 53 53 53 53 53 54 55 55
38 38 38 39 39 39 40 41 42 43 44 44 45 45 45 45 46 46 46 46 47 48 48 50 51 52 52 52 53 52 53 53 53 54 54 53 54 55 55 55 56 56 57
38 38 39 40 40 41 41 41 42 43 44 44 45 46 46 46 46 47 47 48 48 48 48 48 50 51 52 53 54 53 53 53 53 54 55 55 56 56 57 57 57 57 58
37 38 38 39 40 40 41 41 42 43 44 44 45 46 46 47 47 48 49 49 49 49 49 49 49 51 52 53 54 54 54 54 54 55 55 56 57 58 58 58 58 58 59
38 38 38 39 39 40 40 41 42 43 43 44 45 46 47 47 48 49 49 50 50 51 51 51 51 51 52 53 54 55 55 55 56 56 57 57 58 59 58 58 58 59 60
38 38 39 39 39 39 40 40 41 43 44 45 45 45 46 47 48 49 49 50 50 52 52 53 53 52 52 52 53 55 55 55 56 56 57 58 58 58 58 58 58 59 60
38 39 39 39 39 40 40 40 41 42 43 44 45 45 46 47 48 49 50 50 51 52 52 53 53 54 54 53 54 55 56 56 57 56 57 58 57 58 58 58 58 59 60
38 39 39 39 39 39 40 40 41 41 42 43 45 45 46 47 49 50 50 51 51 52 53 53 53 53 54 55 55 55 57 57 58 58 57 57 58 58 58 58 58 59 60
37 38 39 39 39 40 40 40 41 42 43 44 45 46 46 47 48 49 50 51 52 53 54 54 54 54 55 56 56 56 57 58 58 59 59 58 58 58 59 59 59 59 59
39 39 39 40 40 41 41 42 42 43 44 44 45 46 46 47 48 49 50 51 52 53 54 55 55 56 56 57 58 58 57 58 58 59 59 59 58 57 58 59 59 59 59
40 40 40 41 42 42 43 43 44 44 44 45 45 46 47 48 49 50 51 52 52 53 54 54 55 56 56 57 58 59 58 58 59 59 59 59 58 58 58 59 59 59 60
41 41 42 42 43 43 44 44 45 45 46 46 47 48 48 49 50 51 52 52 53 54 54 54 55 55 56 56 57 58 58 58 58 58 58 58 58 59 59 60 60 60 60
42 43 43 44 44 45 46 46 46 47 47 48 48 49 50 50 51 51 52 53 53 54 54 55 55 55 56 56 56 56 56 57 57 57 58 58 58 59 60 61 61 61 61
43 44 44 44 45 46 47 48 48 49 49 49 50 50 50 51 51 52 52 53 53 54 54 55 55 55 55 55 55 55 55 56 57 57 57 58 58 59 60 61 62 62 62
43 44 44 45 45 46 47 48 48 49 50 50 50 50 50 51 51 52 52 53 54 54 54 54 55 55 54 54 54 55 56 56 57 57 58 58 58 59 60 60 60 61 61
44 44 44 45 46 47 47 48 48 49 49 50 50 50 51 51 51 52 53 53 54 55 54 54 54 54 54 54 55 55 56 56 56 56 56 56 57 57 57 58 58 58 59
44 44 45 45 46 46 47 48 48 48 49 49 50 50 50 51 52 52 53 53 54 54 55 54 54 54 54 54 55 55 55 55 55 55 55 55 55 56 55 55 56 56 57
Wind_Direction
263 262 261 260 259 259 258 257 257 257 256 256 255 255 255 256 256 256 256 256 256 257 258 259 259 259 260 260 260 261 261 261 261 260 259 258 258 258 257 257 257 258 259
265 264 264 262 261 260 258 257 257 257 257 257 256 256 257 257 257 258 258 258 258 259 260 260 260 261 262 262 262 261 262 261 261 260 260 259 259 259 259 258 257 258 258
266 265 264 263 261 260 259 258 258 258 257 257 257 257 256 257 258 258 259 260 260 260 261 260 261 261 263 263 263 263 263 263 262 261 261 261 260 259 259 259 258 258 258
267 265 263 263 262 261 259 258 258 258 257 258 259 259 259 258 258 259 259 260 261 262 262 261 262 262 263 264 264 264 264 264 263 263 263 263 262 260 259 258 259 259 258
267 266 265 264 264 263 261 259 259 259 259 259 260 260 260 259 260 260 260 261 262 263 263 263 263 263 263 264 264 264 264 264 264 264 264 264 263 262 260 260 259 259 259
269 268 266 266 266 265 262 260 260 259 260 260 260 260 260 260 260 260 260 261 263 263 264 263 263 264 263 264 264 264 265 265 264 263 263 264 263 262 261 260 259 260 260
271 270 268 268 268 266 263 262 261 260 261 261 262 261 260 260 261 261 261 262 262 263 263 264 264 264 264 264 264 264 265 264 264 264 264 264 264 262 261 260 260 259 260
271 270 269 268 268 267 265 264 263 262 263 262 262 262 261 261 262 261 261 262 263 263 264 264 264 264 264 265 265 264 265 265 264 264 264 264 263 262 261 260 260 259 260
271 271 270 269 269 267 266 265 264 263 263 263 263 262 262 262 263 263 263 263 263 264 264 265 265 265 265 265 265 265 265 265 265 264 264 264 263 262 261 260 261 261 261
273 271 271 271 270 269 267 266 265 264 263 263 262 262 262 263 264 264 264 263 264 264 265 265 266 266 266 266 266 266 265 265 266 265 264 263 262 262 261 261 262 262 263
276 274 273 272 271 270 269 268 266 265 264 264 264 264 263 264 265 266 265 265 265 266 266 266 266 266 266 266 266 267 266 266 266 266 264 263 263 262 261 262 263 263 263
278 277 276 274 272 271 270 268 267 265 265 265 266 266 265 266 267 267 267 267 267 268 267 267 267 266 265 265 266 266 266 266 266 266 265 264 263 262 262 263 264 263 263
278 278 278 276 275 273 272 270 267 266 265 266 267 267 267 267 267 267 268 268 268 268 268 268 267 267 266 266 265 265 265 265 266 266 266 265 263 263 263 265 265 264 265
279 278 278 277 276 274 274 272 270 268 267 267 268 268 268 268 268 268 268 268 269 269 269 269 269 269 268 267 266 266 266 266 267 267 267 266 264 264 264 266 265 265 265
281 280 278 278 277 275 274 273 272 270 270 270 270 270 269 269 268 268 269 269 270 270 269 269 269 269 269 269 268 268 268 268 268 268 268 267 266 265 265 267 267 266 266
282 279 278 277 277 276 275 274 273 273 272 271 271 271 271 271 270 270 270 270 271 271 271 270 270 270 270 270 269 269 268 268 268 269 268 267 266 266 266 268 268 268 268
281 280 279 278 277 277 276 274 274 274 274 273 272 272 272 271 271 270 271 271 272 272 272 271 271 271 271 270 270 270 269 269 268 268 268 267 267 266 267 268 268 268 268
281 281 280 279 278 278 278 277 275 275 275 275 274 274 273 272 272 272 273 273 273 273 273 272 272 272 271 271 270 271 270 269 269 268 268 268 268 268 269 268 269 269 269
282 282 280 279 278 278 277 277 276 276 276 276 276 275 274 274 273 274 274 274 275 275 275 274 273 273 272 272 272 272 272 270 269 268 268 268 268 269 270 269 269 269 269
283 283 282 281 279 278 277 277 277 277 277 277 277 276 276 275 275 275 275 276 276 276 276 275 275 274 273 273 272 272 272 271 270 268 267 267 268 270 270 269 269 270 270
284 284 284 282 281 280 279 278 278 278 278 278 278 278 278 277 276 276 276 276 276 276 276 276 276 275 274 273 273 273 272 272 271 269 267 266 268 269 270 269 270 270 270
285 285 284 283 282 281 280 279 279 279 279 279 279 279 279 279 278 277 277 277 277 277 277 276 276 275 275 275 274 273 273 272 270 269 268 267 268 270 270 270 270 270 270
286 285 285 284 283 282 282 281 281 280 280 280 280 280 280 279 279 278 278 278 278 278 278 277 276 275 275 275 274 273 272 271 271 269 269 268 268 269 270 270 270 270 270
287 286 285 285 284 283 283 283 282 282 281 280 280 280 280 280 280 279 279 279 279 279 279 278 277 276 275 274 274 273 273 272 272 271 270 269 270 270 270 269 270 270 270
289 288 287 286 286 285 285 284 283 283 282 281 281 280 280 280 280 279 279 279 280 280 279 278 277 276 275 274 274 274 274 273 272 271 270 270 271 270 270 269 269 269 269
291 290 289 288 287 286 286 285 284 284 283 283 282 281 281 281 280 280 280 280 280 280 280 279 278 277 277 276 275 275 274 273 271 270 271 271 271 271 270 270 270 270 270
Height
5698 5699 5700 5702 5703 5705 5707 5709 5711 5713 5714 5716 5718 5720 5721 5723 5725 5726 5728 5729 5731 5732 5734 5736 5737 5738 5739 5741 5742 5743 5744 5746 5747 5749 5750 5752 5753 5755 5757 5758 5760 5762 5764
5689 5690 5691 5692 5694 5695 5697 5699 5701 5703 5704 5706 5708 5710 5711 5713 5714 5716 5717 5718 5720 5721 5723 5724 5726 5727 5728 5729 5730 5731 5732 5733 5735 5736 5737 5740 5742 5743 5745 5746 5748 5751 5752
5681 5681 5682 5683 5684 5686 5687 5689 5691 5692 5694 5696 5697 5699 5700 5702 5704 5705 5706 5707 5708 5710 5711 5712 5713 5715 5716 5717 5717 5719 5720 5721 5722 5723 5724 5726 5729 5731 5733 5734 5736 5738 5740
5672 5672 5673 5673 5675 5676 5678 5679 5681 5682 5683 5685 5686 5688 5690 5692 5693 5694 5695 5696 5697 5698 5699 5700 5701 5702 5704 5704 5706 5706 5707 5708 5709 5710 5711 5713 5715 5717 5719 5721 5723 5725 5727
5663 5663 5663 5664 5665 5666 5667 5669 5670 5671 5673 5674 5675 5677 5678 5680 5681 5683 5684 5684 5685 5686 5687 5688 5689 5690 5691 5692 5693 5694 5695 5695 5696 5697 5698 5699 5701 5703 5705 5708 5710 5712 5714
5654 5654 5654 5655 5655 5656 5657 5658 5659 5661 5662 5663 5664 5665 5667 5668 5669 5670 5671 5672 5673 5673 5674 5675 5676 5677 5678 5679 5680 5681 5682 5682 5683 5684 5685 5686 5687 5689 5691 5693 5696 5698 5700
5644 5644 5645 5645 5646 5646 5647 5648 5649 5650 5650 5651 5652 5653 5655 5656 5657 5658 5658 5659 5660 5660 5661 5661 5662 5663 5664 5665 5666 5667 5668 5669 5670 5671 5672 5672 5674 5675 5677 5679 5681 5684 5686
5634 5635 5635 5635 5636 5636 5636 5636 5637 5638 5639 5640 5640 5641 5642 5643 5644 5645 5645 5646 5646 5647 5647 5648 5649 5650 5651 5652 5653 5653 5654 5655 5656 5657 5658 5659 5660 5661 5663 5665 5666 5669 5671
5624 5625 5625 5625 5625 5625 5625 5625 5626 5626 5627 5628 5628 5629 5630 5630 5631 5631 5632 5632 5633 5633 5634 5634 5635 5636 5637 5638 5639 5640 5640 5641 5642 5642 5643 5644 5645 5647 5648 5650 5652 5654 5656
5614 5614 5614 5614 5614 5614 5614 5614 5614 5614 5615 5616 5616 5617 5617 5618 5618 5618 5618 5619 5619 5619 5619 5620 5621 5622 5623 5623 5624 5625 5626 5627 5628 5628 5629 5630 5631 5632 5634 5635 5637 5639 5641
5603 5603 5603 5602 5602 5602 5602 5602 5602 5602 5603 5603 5604 5604 5604 5605 5605 5605 5605 5606 5606 5606 5606 5606 5607 5607 5608 5609 5610 5611 5611 5612 5613 5614 5615 5615 5616 5618 5619 5620 5622 5623 5625
5592 5592 5591 5591 5590 5590 5590 5590 5590 5590 5590 5591 5591 5591 5591 5592 5592 5592 5592 5592 5592 5592 5592 5592 5593 5593 5594 5594 5595 5596 5597 5597 5598 5599 5599 5600 5601 5602 5603 5605 5606 5607 5608
5582 5581 5580 5579 5578 5578 5578 5577 5577 5578 5578 5578 5578 5578 5578 5578 5578 5579 5579 5578 5578 5578 5579 5579 5578 5579 5579 5580 5580 5581 5581 5582 5583 5583 5584 5584 5585 5586 5587 5588 5589 5591 5592
5571 5570 5569 5568 5567 5566 5566 5565 5565 5565 5565 5565 5565 5565 5565 5565 5565 5565 5565 5565 5564 5564 5565 5564 5564 5564 5564 5565 5565 5565 5566 5566 5567 5567 5567 5568 5568 5569 5570 5571 5572 5574 5575
5560 5559 5558 5557 5556 5555 5554 5553 5553 5552 5552 5552 5551 5551 5551 5550 5551 5551 5551 5550 5550 5550 5549 5549 5549 5549 5549 5549 5549 5549 5549 5550 5551 5551 5551 5551 5552 5552 5553 5554 5555 5556 5557
5550 5548 5546 5545 5544 5543 5542 5541 5540 5540 5539 5538 5538 5538 5537 5537 5537 5537 5536 5536 5536 5535 5534 5534 5534 5534 5533 5533 5533 5533 5533 5533 5534 5534 5534 5534 5535 5535 5536 5537 5537 5538 5539
5539 5537 5535 5534 5533 5531 5530 5529 5528 5527 5526 5526 5525 5524 5524 5523 5523 5522 5522 5522 5521 5520 5519 5519 5518 5518 5517 5517 5516 5516 5516 5517 5517 5517 5517 5518 5518 5518 5519 5519 5520 5520 5521
5528 5526 5524 5522 5521 5520 5519 5517 5516 5515 5514 5513 5512 5511 5510 5509 5508 5508 5507 5507 5506 5505 5504 5503 5502 5502 5501 5500 5500 5499 5499 5499 5500 5500 5500 5500 5501 5501 5501 5502 5502 5503 5503
5516 5514 5512 5511 5509 5508 5506 5505 5504 5502 5501 5500 5499 5497 5496 5495 5494 5493 5492 5491 5490 5489 5488 5487 5486 5485 5484 5483 5482 5481 5481 5482 5482 5482 5482 5483 5483 5484 5483 5484 5485 5485 5485
5505 5503 5501 5499 5497 5495 5494 5492 5491 5489 5488 5486 5485 5483 5482 5480 5479 5478 5477 5475 5474 5473 5472 5471 5469 5468 5467 5466 5465 5464 5464 5464 5464 5464 5464 5465 5465 5465 5464 5465 5466 5467 5467
5492 5490 5488 5486 5484 5483 5481 5479 5478 5476 5474 5472 5470 5469 5467 5465 5464 5462 5461 5459 5458 5457 5456 5455 5453 5452 5450 5449 5447 5446 5445 5445 5445 5446 5446 5447 5447 5447 5446 5446 5447 5448 5448
5480 5478 5476 5474 5471 5469 5468 5466 5464 5462 5460 5458 5456 5454 5452 5450 5448 5447 5445 5443 5442 5440 5439 5437 5436 5434 5433 5431 5430 5428 5427 5427 5427 5428 5428 5429 5429 5428 5428 5428 5428 5428 5428
5467 5465 5462 5460 5458 5456 5454 5452 5450 5448 5445 5443 5441 5439 5437 5434 5432 5430 5429 5427 5425 5423 5422 5420 5419 5418 5416 5414 5412 5411 5409 5409 5408 5409 5409 5410 5410 5409 5409 5409 5409 5409 5409
5454 5452 5449 5447 5444 5442 5439 5437 5435 5432 5430 5428 5426 5424 5422 5419 5417 5414 5413 5411 5409 5407 5405 5403 5402 5400 5399 5397 5395 5393 5392 5391 5390 5390 5391 5391 5391 5390 5390 5390 5389 5389 5389
5441 5438 5435 5433 5430 5428 5425 5422 5420 5417 5415 5413 5410 5408 5406 5404 5401 5399 5396 5394 5392 5389 5388 5386 5384 5382 5381 5379 5377 5375 5374 5373 5373 5372 5372 5372 5371 5371 5371 5371 5370 5370 5370
5428 5425 5422 5419 5416 5413 5410 5407 5404 5402 5399 5397 5395 5392 5390 5387 5385 5383 5380 5377 5375 5372 5369 5367 5366 5364 5363 5361 5359 5358 5356 5355 5354 5353 5353 5353 5353 5353 5353 5353 5352 5352 5352